Vertical_Velocity
-4 -2 4 -2 -0 -0 -1 -1 -5 -0 -1 -2 -3 -3 -2 -3 4 1 1 1 -1 -2 1 2 -0 1 2 2 1 1 0 0 0 -0 -2 -2 -1 -1 -3 -1 0 -1 -2 0
-2 -1 -0 0 0 0 -0 -0 0 -1 -1 -2 1 2 2 0 -0 1 2 3 2 1 -0 -0 -0 0 1 0 1 1 0 1 -0 -1 -1 -2 -1 -2 0 -1 -2 -0 3 -2
-1 0 1 -0 -6 -1 -1 -0 -3 -2 -6 0 2 1 -1 1 -1 -4 -3 -4 -2 -2 -2 -0 -1 -1 -1 -1 -1 0 1 0 -1 -1 -1 -1 -1 -1 -3 -2 -0 1 -3 -0
-1 -3 -4 -13 -0 -3 -3 -1 0 0 0 -2 -2 2 -1 4 -5 -3 -3 -2 1 -2 1 3 2 3 1 0 1 0 -0 -1 -1 -0 -1 -1 -2 -1 -2 -0 -0 -5 -0 0
-1 0 -8 -3 -0 -2 -6 -9 -1 -3 0 1 1 0 -2 1 6 2 -1 4 2 4 3 1 0 1 0 0 1 0 0 1 -0 0 -1 -2 -1 -2 1 -2 -3 0 0 -2
-1 -1 -2 -3 -1 -0 -2 -5 0 0 -1 -2 1 -2 -3 4 5 3 4 4 -4 2 0 3 1 1 1 -0 -0 -0 0 0 0 -3 -1 -1 -2 1 -1 -0 2 -1 -3 -1
-0 -0 -9 -3 -1 1 -7 -12 -0 1 -2 -0 -2 -3 -5 6 2 6 3 -1 2 3 1 1 0 0 -1 -1 0 0 0 -0 -2 -1 -1 -2 1 -1 -3 -2 -2 1 -2 -3
2 -0 -9 -1 -2 -5 -7 1 1 1 3 -1 1 4 1 4 -1 0 -4 -1 5 -0 1 1 2 0 -1 0 0 -0 -1 -1 -1 -2 -2 1 -2 -3 0 -2 -3 -3 -4 -3
-9 -12 -3 0 -1 0 0 -1 0 -4 3 -3 -3 2 3 1 1 1 1 -1 1 -0 -1 0 -1 1 -1 -0 -0 -1 -0 -1 -2 -0 2 -2 -3 -3 -5 -2 -3 -3 -1 -3
-2 -4 -1 0 1 0 -0 -3 -1 3 -2 5 -11 1 -1 -0 -0 -1 -0 -2 -1 -2 -1 -3 -1 1 1 -0 0 -1 -2 -2 1 2 -3 -1 2 2 0 -3 -3 -3 -2 -1
-2 1 -0 1 0 -0 1 -1 -1 3 -1 -5 -2 1 -0 -2 -1 -0 -1 -0 0 -1 -1 -1 0 -0 0 0 -1 -1 -0 3 1 -3 -2 -1 2 -3 -5 -0 -0 -0 2 3
-7 -4 -4 -2 -1 2 -2 -3 0 -6 -1 3 2 -3 0 -0 0 -1 -1 -1 -1 0 1 0 0 0 -1 -1 -1 1 3 -0 -4 -2 1 -1 -3 -5 3 -1 -1 1 1 2
-3 1 1 1 4 5 -4 -0 1 -1 3 -5 1 -2 0 -4 0 -0 0 -0 1 1 1 0 -0 -1 -0 0 2 3 -2 -4 1 0 -3 -2 -2 -4 -10 -2 -0 1 -1 -1
2 -8 0 5 -2 3 -1 1 3 -0 -0 0 -1 3 -0 -1 -2 0 -0 -1 -0 -0 -1 -0 -0 1 1 2 3 -2 -2 -1 -2 -2 -0 0 -4 -5 0 -1 -5 -4 2 -1
2 -1 -2 -2 1 2 4 1 -1 -1 0 -0 3 -2 -1 -3 -2 -1 -0 1 0 0 1 0 1 2 2 1 -2 -2 -1 0 -0 1 1 -3 -2 -0 0 -2 -3 -5 -6 -2
2 2 3 -1 0 1 -0 3 -3 -1 2 -0 -2 -1 -0 2 -1 1 1 1 -1 -1 1 1 2 1 0 -1 -2 -1 2 1 1 -2 -5 -3 -2 -2 -2 -1 -2 -2 -1 -0
-8 3 3 2 -0 1 -0 2 4 -1 -1 -0 -0 0 0 -0 -1 1 -0 1 1 1 0 1 2 1 -3 -3 1 2 0 2 -2 -3 -1 -1 -1 -1 -1 -1 -1 0 -0 1
2 1 3 1 -5 -4 1 2 2 1 -1 0 0 0 -0 0 1 -0 0 1 -1 -0 2 2 -0 -3 -2 1 2 1 1 -4 -5 -3 -3 -2 -2 -2 0 0 0 -1 -4 -5
1 -0 2 2 0 -1 -1 -1 1 2 1 0 -0 -1 -0 1 1 -1 0 -0 2 1 -1 -2 -2 1 3 1 -0 0 -4 -3 -2 -2 -0 -0 -1 0 -0 -1 -2 -1 -1 -3
0 3 3 1 2 3 -4 4 2 -0 -0 -2 -1 -1 -1 -0 -1 -0 0 1 -0 -2 0 1 2 2 1 1 0 -3 -2 -1 -2 -2 -1 -2 0 -1 -1 1 1 -0 -3 -1
1 0 0 2 2 2 4 2 -1 -2 -2 2 1 -1 -1 -2 0 1 2 -2 -2 -0 0 1 2 2 2 -2 -3 -2 -1 -2 -2 -1 -1 -0 -1 -1 -2 -1 -1 -1 -3 0
2 1 1 0 2 -2 1 -0 1 -1 -1 0 -0 -1 -1 -0 3 1 -3 -1 -0 0 2 1 1 -0 -4 -3 -1 -1 -1 -2 -1 -0 0 0 -1 -2 -2 -1 -3 -3 0 1
0 3 0 -0 -1 -3 -1 2 1 2 -0 -0 -1 -1 1 1 -2 -3 -0 1 2 2 1 0 -2 -4 -2 0 -2 -2 -2 -1 -0 -0 -0 -1 -0 -1 -2 -1 -3 0 -0 -1
-1 2 -0 3 1 1 -2 1 2 -0 -0 -0 2 2 0 -3 -1 1 1 1 2 1 -1 -3 -2 -0 -1 -2 -2 -1 -0 0 -0 -1 -1 1 0 -0 1 -2 -2 0 -0 1
3 1 2 -0 -0 -0 1 -0 -0 -0 1 1 1 -1 -1 -0 1 -1 1 1 -0 -1 -3 -2 -1 -1 -1 -1 -0 -1 1 -1 -2 -3 -2 -1 -2 -3 -1 -1 -1 -2 -2 2
2 -0 -1 4 2 -0 -0 0 -0 0 1 -2 -2 -0 1 1 0 0 0 -1 -2 -2 -1 -0 -0 -1 -0 -1 -1 -1 -1 -1 -2 0 -1 -1 -2 -0 -1 -1 -0 -1 -0 -0
-1 -0 -1 -1 1 1 1 1 -1 -3 -2 -1 -0 0 0 0 1 -0 -2 -2 -1 -1 -1 -2 -2 -1 -2 -2 -2 -1 -1 0 1 -2 -1 -2 -0 -1 -1 -1 -0 -0 0 -2
Height
1393 1388 1386 1374 1375 1378 1382 1381 1387 1390 1388 1390 1389 1389 1392 1397 1405 1412 1418 1423 1429 1435 1441 1447 1451 1455 1459 1463 1466 1468 1471 1472 1473 1474 1473 1472 1471 1469 1468 1465 1462 1458 1454 1450
1380 1375 1373 1377 1376 1377 1378 1378 1382 1386 1385 1381 1386 1389 1394 1397 1402 1409 1415 1421 1426 1433 1439 1444 1448 1452 1457 1461 1464 1467 1469 1471 1471 1472 1471 1470 1468 1467 1464 1461 1458 1454 1450 1446
1390 1387 1382 1385 1375 1378 1378 1377 1379 1391 1385 1382 1389 1390 1391 1396 1400 1405 1411 1417 1423 1430 1436 1441 1446 1450 1455 1459 1463 1465 1467 1469 1469 1469 1469 1467 1465 1463 1460 1457 1453 1450 1446 1441
1394 1385 1399 1374 1366 1369 1374 1373 1377 1378 1378 1382 1385 1391 1393 1397 1397 1403 1409 1415 1422 1428 1434 1440 1445 1450 1454 1458 1461 1464 1466 1467 1467 1467 1466 1464 1463 1460 1457 1454 1450 1446 1441 1437
1402 1400 1386 1370 1369 1373 1376 1376 1373 1376 1378 1382 1387 1388 1394 1395 1399 1402 1407 1414 1420 1427 1432 1438 1444 1449 1454 1457 1460 1462 1464 1465 1464 1464 1463 1461 1460 1457 1453 1450 1446 1441 1437 1432
1405 1408 1400 1377 1371 1369 1367 1384 1373 1372 1374 1380 1384 1396 1400 1397 1398 1403 1408 1414 1420 1427 1433 1438 1444 1449 1453 1456 1459 1461 1462 1463 1462 1462 1461 1459 1456 1453 1450 1445 1442 1438 1433 1429
1402 1402 1395 1374 1370 1368 1380 1383 1372 1370 1370 1374 1379 1384 1393 1398 1400 1406 1411 1417 1423 1429 1434 1440 1445 1449 1452 1456 1458 1460 1460 1461 1460 1460 1458 1455 1453 1450 1445 1442 1438 1433 1428 1424
1401 1403 1399 1371 1371 1374 1376 1373 1371 1368 1370 1374 1379 1386 1394 1400 1404 1410 1415 1421 1427 1431 1436 1441 1445 1448 1452 1455 1457 1458 1459 1459 1458 1457 1455 1453 1449 1446 1443 1438 1433 1428 1422 1417
1385 1381 1372 1371 1372 1372 1372 1373 1374 1373 1377 1378 1383 1391 1396 1402 1407 1413 1418 1423 1428 1432 1436 1441 1446 1449 1451 1453 1455 1456 1457 1457 1456 1454 1452 1449 1446 1443 1438 1434 1428 1423 1418 1412
1378 1370 1371 1371 1372 1372 1373 1374 1376 1378 1380 1384 1387 1394 1399 1405 1410 1415 1420 1424 1429 1433 1437 1441 1445 1449 1451 1452 1453 1455 1455 1455 1453 1452 1449 1447 1444 1439 1434 1430 1425 1420 1415 1409
1372 1369 1369 1370 1370 1372 1374 1377 1379 1383 1385 1388 1391 1398 1402 1407 1413 1417 1422 1427 1431 1435 1439 1442 1445 1447 1450 1451 1453 1453 1453 1452 1450 1448 1446 1443 1440 1436 1431 1428 1424 1418 1413 1408
1365 1360 1361 1362 1368 1371 1374 1378 1381 1383 1389 1394 1397 1399 1405 1411 1416 1421 1425 1429 1433 1437 1439 1442 1444 1447 1449 1450 1451 1451 1451 1449 1447 1445 1443 1439 1435 1431 1429 1424 1420 1416 1411 1406
1356 1356 1360 1362 1367 1372 1375 1380 1384 1387 1392 1396 1402 1404 1409 1413 1418 1423 1427 1430 1434 1437 1439 1442 1444 1446 1447 1448 1449 1449 1448 1446 1444 1442 1439 1434 1430 1425 1420 1417 1415 1411 1406 1401
1356 1357 1365 1366 1369 1374 1378 1382 1387 1391 1396 1400 1403 1408 1412 1415 1420 1424 1427 1431 1434 1437 1439 1441 1443 1445 1446 1447 1447 1446 1445 1443 1441 1438 1434 1430 1426 1422 1418 1412 1405 1402 1400 1396
1358 1358 1360 1365 1371 1377 1381 1384 1389 1394 1399 1403 1407 1410 1414 1417 1421 1424 1427 1430 1433 1436 1438 1440 1442 1443 1444 1445 1445 1443 1442 1440 1437 1433 1430 1426 1422 1418 1414 1409 1404 1399 1393 1390
1359 1361 1364 1367 1373 1378 1382 1387 1390 1396 1401 1405 1408 1412 1416 1419 1422 1425 1428 1430 1433 1435 1437 1440 1441 1442 1442 1442 1442 1440 1439 1436 1432 1428 1425 1422 1418 1414 1409 1405 1401 1396 1391 1385
1360 1366 1368 1371 1375 1379 1384 1389 1392 1396 1401 1405 1409 1412 1416 1419 1422 1425 1428 1430 1433 1435 1437 1438 1439 1440 1440 1440 1439 1437 1435 1431 1428 1425 1421 1417 1414 1410 1406 1402 1397 1392 1388 1383
1360 1363 1366 1369 1373 1379 1386 1391 1395 1399 1403 1407 1410 1413 1416 1419 1422 1424 1427 1430 1432 1433 1435 1437 1438 1437 1437 1437 1435 1433 1430 1427 1424 1420 1417 1413 1410 1406 1403 1398 1393 1388 1383 1378
1360 1363 1367 1372 1377 1382 1387 1392 1397 1401 1404 1408 1411 1414 1417 1421 1422 1425 1427 1429 1431 1432 1435 1435 1435 1435 1434 1433 1431 1429 1426 1423 1420 1417 1413 1410 1406 1402 1398 1393 1389 1384 1379 1374
1360 1365 1370 1375 1382 1386 1390 1395 1398 1401 1406 1409 1412 1415 1417 1420 1423 1424 1426 1428 1430 1432 1433 1433 1433 1432 1431 1429 1427 1425 1422 1419 1416 1413 1409 1406 1402 1397 1394 1390 1385 1380 1375 1370
1362 1367 1374 1378 1383 1389 1393 1397 1400 1403 1407 1411 1413 1415 1418 1420 1423 1424 1425 1427 1429 1431 1431 1431 1430 1429 1428 1426 1424 1421 1418 1415 1413 1409 1405 1401 1397 1393 1389 1385 1381 1376 1371 1367
1367 1372 1376 1382 1386 1390 1396 1400 1404 1406 1409 1412 1414 1416 1419 1420 1422 1423 1425 1428 1428 1429 1429 1428 1427 1426 1424 1422 1420 1418 1415 1412 1409 1405 1401 1398 1393 1389 1385 1380 1376 1371 1367 1363
1372 1376 1380 1385 1389 1393 1398 1402 1405 1408 1409 1412 1415 1417 1418 1420 1421 1423 1425 1426 1426 1426 1426 1425 1424 1423 1421 1419 1417 1414 1411 1408 1405 1401 1397 1393 1389 1385 1381 1376 1372 1368 1363 1358
1376 1381 1385 1389 1393 1396 1398 1403 1406 1408 1411 1413 1415 1416 1418 1419 1421 1423 1424 1424 1424 1424 1424 1423 1422 1420 1418 1416 1413 1410 1407 1403 1400 1396 1393 1389 1385 1381 1377 1372 1368 1364 1359 1355
1381 1385 1388 1391 1395 1397 1400 1403 1406 1409 1411 1413 1415 1416 1418 1419 1421 1421 1422 1422 1422 1422 1421 1421 1419 1417 1415 1413 1409 1406 1403 1399 1396 1391 1387 1383 1380 1376 1372 1368 1364 1360 1356 1352
1383 1387 1391 1395 1397 1399 1402 1405 1407 1409 1411 1412 1415 1417 1418 1419 1420 1420 1420 1421 1420 1420 1419 1418 1416 1414 1411 1408 1405 1402 1398 1395 1391 1387 1383 1379 1375 1372 1368 1364 1361 1357 1353 1349
1386 1389 1392 1395 1398 1401 1403 1406 1408 1409 1411 1414 1415 1416 1417 1418 1419 1419 1419 1419 1419 1418 1417 1415 1413 1410 1407 1405 1401 1398 1394 1390 1386 1382 1379 1375 1371 1368 1364 1361 1357 1353 1350 1346